sat.trackr.live / text

‹ back to catalog

STARLINK-31433

NORAD 59243 · 2024-049N

PAYLOAD ACTIVE UNKNOWN

§ Identity

Operator
Country
US
Launch date
2024-03-16
Launch site
AFETR
Launch vehicle
Mass (kg)
RCS (m²)

Purposes: comms

External: N2YO · Heavens-Above · Gunter

§ Orbital elements

Epoch: 2026-05-25T04:04:03.806400Z

Period
94.27 min
Inclination
43.0010°
Eccentricity
0.0001165
Mean motion
15.27583119 rev/d
Perigee alt
482.2 km
Apogee alt
483.8 km
Semi-major
6,861.2 km
B*
9.7587e-5
RAAN
71.5369°
Arg perigee
267.4541°
Mean anomaly
92.6177°
Rev number
12,410

§ Raw data

STARLINK-314331 59243U 24049N   26145.16948850  .00002424  00000+0  97587-4 0  99922 59243  43.0010  71.5369 0001165 267.4541  92.6177 15.27583119124108

JSON: /api/v1/satellites/59243 · /tle

For live sub-satellite position, see the globe view (requires WebGL).

§ Visibility from observer

Set your observer location to see the next 7 days of passes ≥ 10°. The values pass through the URL so the page stays shareable.

No JS? Fill the form by hand. The geolocation button needs JavaScript.